This is the latest recevied weather packets stored in our database for station/object SP2FH-13. If no packets are shown the sender has not sent any weather packets the latest 10 day(s).
| Time | Temp. | Humidity | Pressure | Rain* | Wind** | Luminosity | Snow |
|---|---|---|---|---|---|---|---|
| 1777615347 | 10° C | 59% | 1016 hPa | - | - | 209 W/m² | - |
| 1777615047 | 10° C | 60% | 1016 hPa | - | - | 53 W/m² | - |
| 1777614745 | 10° C | 61% | 1016 hPa | - | - | 70 W/m² | - |
| 1777614444 | 9.44° C | 61% | 1016 hPa | - | - | 97 W/m² | - |
| 1777614143 | 8.89° C | 62% | 1016 hPa | - | - | 178 W/m² | - |
| 1777613842 | 8.89° C | 63% | 1016 hPa | - | - | 165 W/m² | - |
| 1777613541 | 8.33° C | 64% | 1016 hPa | - | - | 153 W/m² | - |
| 1777613241 | 8.33° C | 65% | 1016 hPa | - | - | 141 W/m² | - |
| 1777612940 | 8.33° C | 66% | 1015.9 hPa | - | - | 128 W/m² | - |
| 1777612639 | 7.78° C | 66% | 1015.9 hPa | - | - | 117 W/m² | - |
| 1777612338 | 7.78° C | 67% | 1015.8 hPa | - | - | 106 W/m² | - |
| 1777612037 | 7.22° C | 68% | 1015.8 hPa | - | - | 95 W/m² | - |
| 1777611736 | 6.67° C | 69% | 1015.8 hPa | - | - | 85 W/m² | - |
| 1777611435 | 6.67° C | 70% | 1015.9 hPa | - | - | 75 W/m² | - |
| 1777611134 | 6.11° C | 71% | 1015.9 hPa | - | - | 66 W/m² | - |
| 1777610833 | 6.11° C | 72% | 1016 hPa | - | - | 60 W/m² | - |
| 1777610532 | 5.56° C | 73% | 1016 hPa | - | - | 53 W/m² | - |
| 1777610231 | 5.56° C | 73% | 1015.9 hPa | - | - | 43 W/m² | - |
| 1777609930 | 5.56° C | 73% | 1015.9 hPa | - | - | 39 W/m² | - |
| 1777609629 | 5° C | 73% | 1015.8 hPa | - | - | 41 W/m² | - |
| 1777609328 | 5° C | 74% | 1015.8 hPa | - | - | 37 W/m² | - |
| 1777609027 | 4.44° C | 75% | 1015.8 hPa | - | - | 36 W/m² | - |
| 1777608726 | 4.44° C | 75% | 1015.7 hPa | - | - | 28 W/m² | - |
| 1777608425 | 3.89° C | 76% | 1015.7 hPa | - | - | 26 W/m² | - |
| 1777608124 | 3.89° C | 77% | 1015.6 hPa | - | - | 24 W/m² | - |
* Rain since midnight (hover to see other rain measurements)
** Current wind speed in m/s (hover to see current wind gust speed)